Flag for U.S.A. Weather past 2 weeks in Orlando, Florida, U.S.A.

Now
68 °F

Clear.


Feels Like: 68 °F
Forecast: 64 / 79 °F
Wind: 7 mph from Northeast

Location: Orlando Executive Airport

Current Time: Oct 23, 2014 at 2:03:32 AM

Latest Report: Oct 23, 2014 at 12:53 AM


Visibility: 10 mi

Pressure: 30.00 "Hg

Humidity: 73%

Dew point: 59 °F

Location of OrlandoLocation

Historic Weather in Orlando — Graph

°F

Orlando temperature yesterday

Maximum temperature yesterday: 86 °F (at 3:53 PM)
Minimum temperature yesterday: 69 °F (at 11:53 PM)
Average temperature yesterday: 76 °F

Past Weeks' High & Low Weather Summary

 TemperatureHumidityPressure
High90 °F (Oct 11, 2:53 PM)100% (Oct 22, 5:53 AM)30.16 "Hg (Oct 22, 5:53 AM)
Low62 °F (Oct 17, 7:53 AM)37% (Oct 22, 2:53 PM)29.89 "Hg (Oct 16, 4:53 PM)
Average77 °F71%30.01 "Hg
* Reported Oct 8 12:53 AM — Oct 23 12:53 AM, Orlando, Weather by CustomWeather, © 2014

Note: Actual official high and low records may vary slightly from our data, if they occured in-between our weather recording intervals... More about our weather records

Advertising

Orlando weather history for previous 24 hours

 ConditionsComfort  
Time TempWeatherWind HumidityBarometerVisibility
12:53 AM
Oct 23
68 °FClear.7 mph73%30.00 "Hg10 mi
11:53 PM
Oct 22
69 °FClear.7 mph70%30.01 "Hg10 mi
10:53 PM70 °FClear.7 mph71%30.02 "Hg10 mi
9:53 PM71 °FClear.7 mph71%30.02 "Hg10 mi
8:53 PM72 °FClear.9 mph68%30.01 "Hg10 mi
7:53 PM72 °FClear.9 mph71%29.99 "Hg10 mi
6:53 PM75 °FSunny.10 mph64%29.97 "Hg10 mi
5:53 PM80 °FSunny.10 mph58%29.95 "Hg10 mi
4:53 PM85 °FSunny.8 mph39%29.93 "Hg10 mi
3:53 PM86 °FSunny.5 mph39%29.93 "Hg10 mi
2:53 PM85 °FSunny.No wind37%29.94 "Hg10 mi
1:53 PM83 °FSunny.3 mph44%29.97 "Hg10 mi
12:53 PM82 °FSunny.6 mph51%30.00 "Hg10 mi
11:53 AM81 °FSunny.7 mph51%30.01 "Hg10 mi
10:53 AM79 °FSunny.8 mph58%30.02 "Hg10 mi
9:53 AM77 °FSunny.7 mph62%30.01 "Hg10 mi
8:53 AM73 °FSunny.6 mph74%30.00 "Hg10 mi
7:53 AM70 °FClear.3 mph87%29.98 "Hg10 mi
6:53 AM71 °FClear.3 mph87%29.97 "Hg10 mi
5:53 AM71 °FFog.5 mph100%29.96 "Hg5 mi
4:55 AM72 °FPassing clouds.3 mph93%29.94 "Hg7 mi
3:53 AM71 °FPassing clouds.No wind96%29.93 "Hg7 mi
2:53 AM71 °FClear.5 mph93%29.94 "Hg10 mi
Weather by CustomWeather, © 2014

See weather overviewHow to use our weather pages